Погода в Крымно

Украина / Волынская область     51°39′44″N   25°10′33″E
темп.,
°C
ветер,
м/с
пор.,
м/с
влажн.,
%
обл.,
%
осадки,
мм/ч
давл.,
гПа
погр.,
м
17 августа, ср
ср1700:00+18в389586 0.8 1011274
03:00+18всв3694100 0.8 1011138
06:00+17св359586 0.1 1011112
09:00+19всв468588 0.1 1011381
12:00+22в2273100 0.0 1012696
15:00+21св128071 0.0 1012158
18:00+26с02555 0.0 1011802
21:00+20зсз34802 0.4 101152
18 августа, чт
чт1800:00+20ссз3780100 0.0 1012133
03:00+20св337690 0.0 101260
06:00+18всв35881 0.0 1012119
09:00+22всв46660 0.0 1013334
12:00+28в34450 0.0 1013957
15:00+30всв34340 0.0 10121815
18:00+31в35330 0.0 10121916
21:00+24всв355488 0.0 101372
19 августа, пт
пт1900:00+21в3559100 0.0 101479
03:00+19в36683 0.0 101483
06:00+18в36735 0.0 101496
09:00+23в465717 0.0 1015309
12:00+28в56408 0.0 10141030
15:00+31в453216 0.0 10141856
18:00+30в553496 0.0 10132002
21:00+24в47545 0.0 101395
20 августа, сб
сб2000:00+20в397189 0.0 1014154
03:00+19вюв49832 0.0 1014172
06:00+17в48915 0.0 1013144
09:00+22вюв57690 0.0 1014427
12:00+28вюв56500 0.0 10131263
15:00+30юв45395 0.0 10122026
18:00+30юв44385 0.0 10112030
21:00+24юв3358100 0.0 101228
21 августа, вс
вс2100:00+22вюв41067100 0.0 1012182
03:00+21юв4116596 0.0 1012247
06:00+22юв2663100 0.0 1012180
09:00+24юв365697 0.0 1012337
12:00+28ююв4545100 0.0 1012915
15:00+30ююв3438100 0.0 10111740
18:00+29сз3244100 0.0 1010537
21:00+23ссв3570100 0.1 101184